Location: Ripley
(48.3812°N, 115.4473°W)
Time: 12:09:15
(UTC+00:00)

AIST 2D - Pass Details

Date: 01 July 2022
Orbit: 433 x 443 km, 97.0° (Epoch: 11 August)

Event Time Altitude Azimuth Distance (km) Brightness Sun altitude
Rises 05:02:58 0° 17° (NNE) 2,426 ? -9.8°
Reaches altitude 10° 05:05:03 10° 24° (NNE) 1,554 ? -10.0°
Maximum altitude 05:08:16 47° 99° (E) 593 ? -10.3°
Enters shadow 05:11:01 13° 172° (S) 1,359 ? -10.6°
